Regional Weather Roundup
Issued by NWS

Home | Current Version | Previous Version | Graphics & Text | Print | Product List | Glossary On
Versions: 1 2 3 4 5 6 7 8 9 10 11 12 13 14 15 16 17 18 19 20 21 22 23 24 25 26 27 28 29 30 31 32 33 34 35 36 37 38 39 40 41 42 43 44 45 46 47 48 49 50
000
ASUS43 KOAX 200910
RWRNE

WEATHER ROUNDUP FOR NEBRASKA
NATIONAL WEATHER SERVICE OMAHA NE
400 AM CDT SAT SEP 20 2014

NOTES: SATELLITE DATA IS BEING USED TO AUGMENT CLOUD COVER ABOVE
       12000 FEET.
       "FAIR" INDICATES FEW OR NO CLOUDS BELOW 12,000 FEET WITH NO
       SIGNIFICANT WEATHER AND/OR OBSTRUCTIONS TO VISIBILITY.

  * THESE STATIONS DO NOT REPORT WEATHER SUCH AS RAIN...SNOW OR FOG.

NEZ001>004-019>022-054>056-201000-
NEBRASKA PANHANDLE

CITY           SKY/WX    TMP DP  RH WIND       PRES   REMARKS
SCOTTSBLUFF    CLEAR     59  49  69 NW6       30.06R
ALLIANCE       CLEAR     56  50  80 N10       30.04R
CHADRON        PTCLDY    53  50  89 W5        30.05R
KIMBALL        CLEAR     55  49  81 NW8       30.07R
SIDNEY         CLEAR     58  52  80 NW10      30.03R
$$

NEZ057>060-069>072-079>082-201000-
SOUTHWEST NEBRASKA

CITY           SKY/WX    TMP DP  RH WIND       PRES   REMARKS
NORTH PLATTE   PTCLDY    63  59  87 CALM      29.90R
IMPERIAL       PTCLDY    62  55  77 W9        29.92R
LEXINGTON      MOCLDY    71  61  71 SW3       29.88S
MCCOOK         PTCLDY    68  61  78 SW8       29.89S
OGALLALA       CLEAR     66  58  73 N3        29.95R
$$

NEZ005>010-023>029-035>040-094-201000-
NORTH CENTRAL NEBRASKA

CITY           SKY/WX    TMP DP  RH WIND       PRES   REMARKS
VALENTINE      CLEAR     56  53  90 W8        29.96R
AINSWORTH      PTCLDY    59  54  83 NW8       29.95R
BROKEN BOW     PTCLDY    63  59  87 N7        29.90R
O`NEILL        CLEAR     61  58  90 NW6       29.90R
ORD            CLEAR     66  61  84 N5        29.86S
THEDFORD       PTCLDY    65  56  71 N7        29.96R
$$

NEZ041-046>049-061>064-073>077-083>087-201000-
SOUTH CENTRAL NEBRASKA

CITY           SKY/WX    TMP DP  RH WIND       PRES   REMARKS
GRAND ISLAND   MOCLDY    73  61  65 SW14      29.86S
AURORA         MOCLDY    70  60  70 SW7       29.86R
HASTINGS       MOCLDY    71  58  63 SW9       29.87S
HEBRON         CLEAR     70  61  73 SW13G18   29.87F
HOLDREGE       MOCLDY    68  59  74 SW5       29.88F
KEARNEY *      MOCLDY    70  61  73 S12       29.87F
YORK           MOCLDY    70  63  78 SW8       29.86S
$$

NEZ011>018-030>034-042>045-201000-
NORTHEAST NEBRASKA

CITY           SKY/WX    TMP DP  RH WIND       PRES   REMARKS
NORFOLK        CLOUDY    70  64  81 SW12      29.84R
ALBION         MOCLDY    69  64  84 NW3       29.86R
BLAIR          CLOUDY    71  68  88 CALM      29.85F THUNDER
COLUMBUS *     CLOUDY    72  63  73 W14       29.87F
FREMONT        MOCLDY    75  64  68 SW9       29.85S
TEKAMAH        CLOUDY    69  66  90 SE7       29.82F
WAYNE          CLOUDY    63  62  97 CALM      29.83R
$$

NEZ050>053-065>068-078-088>093-201000-
SOUTHEAST NEBRASKA

CITY           SKY/WX    TMP DP  RH WIND       PRES   REMARKS
LINCOLN        CLOUDY    74  63  68 SW10      29.85S
OMAHA EPPLEY   TSTM      71  68  90 E7        29.85S
BEATRICE       PTCLDY    71  65  82 SW13G18   29.86F
FALLS CITY     CLEAR     69  67  93 SW10      29.88S
NEBRASKA CITY    N/A     71  67  89 SW14G21   29.84F
PLATTSMOUTH    MOCLDY    72  65  81 CALM      29.85R
$$

NEZ044-045-051>053-067-201000-
OMAHA AREA

CITY           SKY/WX    TMP DP  RH WIND       PRES   REMARKS
OMAHA EPPLEY   TSTM      71  68  90 E7        29.85S
BLAIR          CLOUDY    71  68  88 CALM      29.85F THUNDER
FREMONT        MOCLDY    75  64  68 SW9       29.85S
MILLARD        MOCLDY    73  68  84 CALM      29.85R
OFFUTT AFB     HVY RAIN  70  70  99 N3        29.86R FOG
PLATTSMOUTH    MOCLDY    72  65  81 CALM      29.85R
WAHOO          CLOUDY    73  63  72 NW12      29.89R
$$



USA.gov is the U.S. government's official web portal to all federal, state and local government web resources and services.